Location: ????? ??????
(37.8317°N, 23.8750°E)
Time: 01:33:04
(UTC+00:00)

COSMO-SKYMED 1 - Pass Details

Date: 20 January 2021
Orbit: 621 x 623 km, 97.9° (Epoch: 25 February)

Event Time Altitude Azimuth Distance (km) Brightness Sun altitude
Rises 16:20:57 0° 14° (NNE) 2,910 5.7 -9.3°
Reaches altitude 10° 16:23:10 10° 16° (NNE) 1,999 4.8 -9.7°
Maximum altitude 16:27:30 75° 101° (E) 649 2.5 -10.5°
Drops below altitude 10° 16:31:49 10° 188° (S) 1,983 5.5 -11.4°
Sets 16:34:00 0° 190° (S) 2,884 6.4 -11.8°
